• In Netherlands
  • List of Countries
  • For 7 days
  • Water Temperature
  • Satellite Maps
  • Weather Map
  • Weather Widgets
  • user-avatar
    Login

    Hourly Weather Lankaran

    Today, 25 May, Thursday

    Time Temperature Precipitation Wind Pressure Humidity
    00:00 +9°C° 0 mm 2 mps 632 mmHg 83%
    01:00 +8°C° 0 mm 2 mps 632 mmHg 83%
    02:00 +8°C° 0 mm 2 mps 632 mmHg 82%
    03:00 +9°C° 0 mm 1 mps 632 mmHg 82%
    04:00 +10°C° 0 mm 1 mps 633 mmHg 79%
    05:00 +11°C° 0 mm 1 mps 634 mmHg 76%
    06:00 +12°C° 0 mm 1 mps 634 mmHg 73%
    07:00 +13°C° 0 mm 2 mps 635 mmHg 65%
    08:00 +15°C° 0 mm 2 mps 635 mmHg 57%
    09:00 +16°C° 0 mm 2 mps 636 mmHg 49%
    10:00 +17°C° 0 mm 3 mps 636 mmHg 47%
    11:00 +18°C° 0 mm 3 mps 636 mmHg 46%
    12:00 +19°C° 0 mm 3 mps 636 mmHg 45%
    13:00 +19°C° 0 mm 3 mps 635 mmHg 46%
    14:00 +19°C° 0 mm 3 mps 635 mmHg 48%
    15:00 +19°C° 0 mm 3 mps 635 mmHg 49%
    16:00 +18°C° 0 mm 3 mps 635 mmHg 56%
    17:00 +17°C° 0 mm 3 mps 634 mmHg 63%
    18:00 +16°C° 0 mm 3 mps 634 mmHg 69%
    19:00 +14°C° 0 mm 3 mps 634 mmHg 75%
    20:00 +13°C° 0 mm 2 mps 634 mmHg 81%
    21:00 +12°C° 0 mm 2 mps 634 mmHg 86%
    22:00 +10°C° 0 mm 2 mps 634 mmHg 87%
    23:00 +10°C° 0 mm 1 mps 634 mmHg 88%

    Tomorrow, 26 May, Friday

    Time Temperature Precipitation Wind Pressure Humidity
    00:00 +10°C° 0 mm 1 mps 634 mmHg 89%
    01:00 +9°C° 0 mm 1 mps 634 mmHg 89%
    02:00 +9°C° 0 mm 1 mps 633 mmHg 89%
    03:00 +9°C° 0 mm 1 mps 633 mmHg 88%
    04:00 +10°C° 0 mm 1 mps 634 mmHg 85%
    05:00 +11°C° 0 mm 1 mps 634 mmHg 82%
    06:00 +12°C° 0 mm 1 mps 634 mmHg 78%
    07:00 +14°C° 0 mm 1 mps 635 mmHg 72%
    08:00 +15°C° 0 mm 2 mps 635 mmHg 67%
    09:00 +17°C° 0 mm 2 mps 636 mmHg 61%
    10:00 +18°C° 0 mm 2 mps 636 mmHg 58%
    11:00 +18°C° 0 mm 3 mps 635 mmHg 56%
    12:00 +19°C° 0 mm 3 mps 635 mmHg 53%
    13:00 +20°C° 0 mm 3 mps 635 mmHg 53%
    14:00 +20°C° 0 mm 3 mps 635 mmHg 52%
    15:00 +20°C° 0 mm 3 mps 634 mmHg 52%
    16:00 +19°C° 0 mm 3 mps 634 mmHg 58%
    17:00 +18°C° 0 mm 3 mps 633 mmHg 63%
    18:00 +17°C° 0 mm 2 mps 633 mmHg 69%
    19:00 +16°C° 0 mm 2 mps 633 mmHg 74%
    20:00 +14°C° 0 mm 2 mps 633 mmHg 78%
    21:00 +13°C° 0 mm 1 mps 633 mmHg 83%
    22:00 +12°C° 0 mm 1 mps 633 mmHg 83%
    23:00 +11°C° 0 mm 1 mps 632 mmHg 84%

    Day after tomorrow, 27 May, Saturday

    Time Temperature Precipitation Wind Pressure Humidity
    00:00 +10°C° 0 mm 1 mps 632 mmHg 84%
    01:00 +10°C° 0 mm 1 mps 632 mmHg 83%
    02:00 +10°C° 0 mm 1 mps 632 mmHg 83%
    03:00 +9°C° 0 mm 1 mps 631 mmHg 82%
    04:00 +11°C° 0 mm 1 mps 632 mmHg 78%
    05:00 +13°C° 0 mm 1 mps 632 mmHg 74%
    06:00 +14°C° 0 mm 1 mps 633 mmHg 70%
    07:00 +16°C° 0 mm 2 mps 633 mmHg 63%
    08:00 +18°C° 0 mm 2 mps 634 mmHg 56%
    09:00 +20°C° 0 mm 3 mps 634 mmHg 49%
    10:00 +21°C° 0 mm 3 mps 634 mmHg 46%
    11:00 +22°C° 0 mm 3 mps 634 mmHg 43%
    12:00 +23°C° 0 mm 4 mps 633 mmHg 40%
    13:00 +23°C° 0 mm 4 mps 633 mmHg 42%
    14:00 +22°C° 0 mm 4 mps 632 mmHg 44%
    15:00 +22°C° 0 mm 4 mps 631 mmHg 46%
    16:00 +21°C° 0.1 mm 4 mps 631 mmHg 52%
    17:00 +19°C° 0.1 mm 3 mps 630 mmHg 59%
    18:00 +18°C° 0.1 mm 3 mps 630 mmHg 65%
    19:00 +17°C° 0.1 mm 3 mps 630 mmHg 65%
    20:00 +14°C° 0.1 mm 3 mps 630 mmHg 65%
    21:00 +14°C° 0.1 mm 2 mps 629 mmHg 65%
    22:00 +13°C° 0 mm 3 mps 629 mmHg 66%
    23:00 +12°C° 0 mm 3 mps 629 mmHg 66%

    28 May, Sunday

    Time Temperature Precipitation Wind Pressure Humidity
    00:00 +12°C° 0 mm 4 mps 629 mmHg 67%
    01:00 +11°C° 0 mm 4 mps 629 mmHg 66%
    02:00 +11°C° 0 mm 4 mps 630 mmHg 66%
    03:00 +11°C° 0 mm 4 mps 630 mmHg 65%
    04:00 +12°C° 0 mm 3 mps 630 mmHg 60%
    05:00 +12°C° 0 mm 3 mps 631 mmHg 55%
    06:00 +13°C° 0 mm 3 mps 632 mmHg 51%
    07:00 +15°C° 0 mm 4 mps 632 mmHg 44%
    08:00 +18°C° 0 mm 4 mps 633 mmHg 38%
    09:00 +20°C° 0 mm 4 mps 634 mmHg 32%
    10:00 +21°C° 0 mm 4 mps 634 mmHg 31%
    11:00 +22°C° 0 mm 4 mps 634 mmHg 30%
    12:00 +23°C° 0 mm 4 mps 634 mmHg 29%
    13:00 +23°C° 0 mm 4 mps 634 mmHg 30%
    14:00 +23°C° 0 mm 4 mps 634 mmHg 32%
    15:00 +23°C° 0 mm 4 mps 633 mmHg 33%
    16:00 +22°C° 0 mm 4 mps 633 mmHg 41%
    17:00 +20°C° 0 mm 3 mps 633 mmHg 49%
    18:00 +19°C° 0 mm 3 mps 633 mmHg 57%
    19:00 +17°C° 0 mm 2 mps 632 mmHg 62%
    20:00 +15°C° 0 mm 2 mps 632 mmHg 66%
    21:00 +13°C° 0 mm 2 mps 632 mmHg 71%
    22:00 +12°C° 0 mm 2 mps 632 mmHg 70%
    23:00 +12°C° 0 mm 1 mps 632 mmHg 69%

    29 May, Monday

    Time Temperature Precipitation Wind Pressure Humidity
    00:00 +11°C° 0 mm 1 mps 632 mmHg 69%
    01:00 +11°C° 0 mm 1 mps 632 mmHg 71%
    02:00 +10°C° 0 mm 1 mps 632 mmHg 72%
    03:00 +10°C° 0 mm 1 mps 632 mmHg 74%
    04:00 +11°C° 0 mm 1 mps 633 mmHg 75%
    05:00 +12°C° 0 mm 1 mps 634 mmHg 76%
    06:00 +13°C° 0 mm 1 mps 635 mmHg 76%
    07:00 +14°C° 0 mm 2 mps 635 mmHg 73%
    08:00 +14°C° 0 mm 3 mps 636 mmHg 69%
    09:00 +15°C° 0 mm 4 mps 636 mmHg 65%
    10:00 +17°C° 0.1 mm 4 mps 636 mmHg 65%
    11:00 +17°C° 0.1 mm 4 mps 636 mmHg 65%
    12:00 +17°C° 0.1 mm 4 mps 636 mmHg 65%
    13:00 +17°C° 0 mm 4 mps 636 mmHg 67%
    14:00 +17°C° 0 mm 4 mps 635 mmHg 68%
    15:00 +15°C° 0 mm 4 mps 635 mmHg 70%
    16:00 +15°C° 0 mm 4 mps 635 mmHg 73%
    17:00 +14°C° 0 mm 4 mps 635 mmHg 77%
    18:00 +13°C° 0 mm 4 mps 635 mmHg 81%
    19:00 +12°C° 0 mm 3 mps 635 mmHg 83%
    20:00 +11°C° 0 mm 3 mps 635 mmHg 85%
    21:00 +10°C° 0 mm 2 mps 635 mmHg 87%
    22:00 +10°C° 0 mm 2 mps 635 mmHg 88%
    23:00 +10°C° 0 mm 2 mps 635 mmHg 89%

    30 May, Tuesday

    Time Temperature Precipitation Wind Pressure Humidity
    00:00 +9°C° 0 mm 2 mps 635 mmHg 90%
    01:00 +9°C° 0 mm 2 mps 635 mmHg 90%
    02:00 +9°C° 0 mm 2 mps 635 mmHg 91%
    03:00 +8°C° 0 mm 2 mps 635 mmHg 91%
    04:00 +9°C° 0 mm 2 mps 635 mmHg 89%
    05:00 +9°C° 0 mm 2 mps 636 mmHg 87%
    06:00 +10°C° 0 mm 2 mps 636 mmHg 85%
    07:00 +12°C° 0 mm 2 mps 636 mmHg 80%
    08:00 +13°C° 0 mm 3 mps 636 mmHg 75%
    09:00 +14°C° 0 mm 3 mps 636 mmHg 70%
    10:00 +16°C° 0 mm 3 mps 636 mmHg 66%
    11:00 +18°C° 0 mm 3 mps 635 mmHg 62%
    12:00 +19°C° 0 mm 4 mps 635 mmHg 58%
    13:00 +19°C° 0 mm 4 mps 635 mmHg 59%
    14:00 +19°C° 0 mm 4 mps 634 mmHg 60%
    15:00 +19°C° 0 mm 4 mps 634 mmHg 60%
    16:00 +18°C° 0 mm 3 mps 633 mmHg 65%
    17:00 +17°C° 0 mm 2 mps 633 mmHg 69%
    18:00 +16°C° 0 mm 2 mps 633 mmHg 73%
    19:00 +15°C° 0 mm 1 mps 633 mmHg 77%
    20:00 +13°C° 0 mm 1 mps 633 mmHg 80%
    21:00 +12°C° 0 mm 1 mps 632 mmHg 84%
    22:00 +12°C° 0 mm 1 mps 632 mmHg 83%
    23:00 +12°C° 0 mm 1 mps 632 mmHg 81%
    Show more